CW7625 Weather Reports


Display with metric or nautical units.
time (UTC)temp
F
wind
direction
speed
MPH
gust
MPH
rain 1hr
in
rain 24hr
in
rain mn
in
humidity
%
barometer
mb
20260901003111 93 82 0.0 0.0 0.00 0.00 0.00 47 1012.0
20260901002111 94 82 0.0 2.0 0.00 0.00 0.00 46 1012.0
20260901000111 96 81 1.0 3.0 0.00 0.00 0.00 43 1012.0
20260831235111 96 230 2.0 4.0 0.00 0.00 0.00 43 1012.0
20260831234111 96 60 2.0 7.0 0.00 0.00 0.00 44 1012.0
20260831233111 97 155 1.0 6.0 0.00 0.00 0.00 42 1012.0
20260831232111 97 47 4.0 4.0 0.00 0.00 0.00 42 1012.0
20260831231111 97 234 2.0 9.0 0.00 0.00 0.00 41 1011.9
20260831230111 98 103 2.0 8.0 0.00 0.00 0.00 42 1011.9
20260831225111 98 250 5.0 8.0 0.00 0.00 0.00 41 1012.0
20260831224111 98 223 1.0 11.0 0.00 0.00 0.00 41 1012.0
20260831223111 99 63 11.0 11.0 0.00 0.00 0.00 41 1012.1
20260831222111 99 309 2.0 11.0 0.00 0.00 0.00 41 1012.2
20260831221111 99 103 2.0 7.0 0.00 0.00 0.00 41 1012.2
20260831220111 99 155 2.0 9.0 0.00 0.00 0.00 39 1012.2
20260831215111 99 65 3.0 8.0 0.00 0.00 0.00 41 1012.3
20260831214111 99 78 0.0 7.0 0.00 0.00 0.00 42 1012.4
20260831213111 100 82 3.0 10.0 0.00 0.00 0.00 41 1012.4
20260831212111 100 317 3.0 7.0 0.00 0.00 0.00 40 1012.4
20260831211111 100 193 2.0 4.0 0.00 0.00 0.00 39 1012.5
20260831210111 99 101 1.0 8.0 0.00 0.00 0.00 42 1012.7
20260831205111 99 240 0.0 4.0 0.00 0.00 0.00 42 1012.9
20260831204111 99 135 2.0 6.0 0.00 0.00 0.00 43 1013.1
20260831203111 99 229 4.0 7.0 0.00 0.00 0.00 43 1013.2
20260831202111 98 197 1.0 7.0 0.00 0.00 0.00 44 1013.3
20260831201111 98 65 5.0 6.0 0.00 0.00 0.00 48 1013.4
20260831200112 97 42 1.0 6.0 0.00 0.00 0.00 45 1013.6
20260831195111 97 67 2.0 7.0 0.00 0.00 0.00 45 1013.8
20260831194111 96 29 3.0 8.0 0.00 0.00 0.00 46 1013.9
20260831192111 95 90 1.0 4.0 0.00 0.00 0.00 47 1014.1
20260831191111 95 74 4.0 4.0 0.00 0.00 0.00 47 1014.3
20260831190111 96 77 1.0 6.0 0.00 0.00 0.00 47 1014.3
20260831185111 98 300 3.0 12.0 0.00 0.00 0.00 44 1014.4
20260831184111 98 217 1.0 11.0 0.00 0.00 0.00 48 1014.7
20260831183111 96 68 3.0 5.0 0.00 0.00 0.00 50 1014.6
20260831182111 96 321 3.0 4.0 0.00 0.00 0.00 48 1014.8
20260831181111 95 227 1.0 11.0 0.00 0.00 0.00 49 1015.0
20260831180111 96 119 1.0 7.0 0.00 0.00 0.00 49 1015.0
20260831175111 95 325 2.0 9.0 0.00 0.00 0.00 49 1015.3
20260831174111 95 95 2.0 7.0 0.00 0.00 0.00 50 1015.4
20260831173111 94 321 4.0 7.0 0.00 0.00 0.00 51 1015.7
20260831172111 95 291 2.0 9.0 0.00 0.00 0.00 49 1015.9
20260831171111 94 63 2.0 5.0 0.00 0.00 0.00 50 1016.1
20260831170111 93 223 0.0 5.0 0.00 0.00 0.00 49 1016.2
20260831165111 93 331 0.0 5.0 0.00 0.00 0.00 51 1016.2
20260831164111 93 215 1.0 5.0 0.00 0.00 0.00 53 1016.4
20260831163111 92 220 3.0 5.0 0.00 0.00 0.00 54 1016.3
20260831162111 92 298 1.0 5.0 0.00 0.00 0.00 55 1016.3
20260831161111 90 322 2.0 5.0 0.00 0.00 0.00 58 1016.4
20260831154111 87 249 2.0 4.0 0.00 0.00 0.00 68 1016.3
20260831151111 85 230 0.0 2.0 0.00 0.00 0.00 70 1016.1
20260831145112 85 230 0.0 2.0 0.00 0.00 0.00 71 1016.2
20260831144111 85 230 2.0 3.0 0.00 0.00 0.00 70 1016.1
20260831143112 85 268 1.0 3.0 0.00 0.00 0.00 70 1016.0
20260831142111 85 196 1.0 2.0 0.00 0.00 0.00 69 1016.0
20260831141111 85 196 2.0 3.0 0.00 0.00 0.00 69 1015.9
20260831140112 84 67 0.0 4.0 0.00 0.00 0.00 74 1015.8
20260831135111 82 111 0.0 3.0 0.00 0.00 0.00 77 1015.7
20260831134111 80 111 2.0 2.0 0.00 0.00 0.00 79 1015.6
20260831133111 78 111 0.0 1.0 0.00 0.00 0.00 81 1015.5
20260831132112 77 111 0.0 0.0 0.00 0.00 0.00 84 1015.4
20260831131112 77 111 0.0 1.0 0.00 0.00 0.00 85 1015.3
20260831130111 75 111 0.0 1.0 0.00 0.00 0.00 86 1015.1
20260831125111 74 111 0.0 0.0 0.00 0.00 0.00 88 1015.1
20260831124111 72 111 0.0 0.0 0.00 0.00 0.00 89 1014.8
20260831122112 71 111 0.0 0.0 0.00 0.00 0.00 88 1014.5
20260831121112 71 111 0.0 0.0 0.00 0.00 0.00 88 1014.3
20260831120112 71 111 0.0 0.0 0.00 0.00 0.00 88 1014.2
20260831115112 71 111 0.0 0.0 0.00 0.00 0.00 88 1014.2
20260831114111 71 111 0.0 0.0 0.00 0.00 0.00 88 1014.1
20260831113111 72 111 0.0 0.0 0.00 0.00 0.00 87 1014.0
20260831112111 72 111 0.0 0.0 0.00 0.00 0.00 87 1014.0
20260831110112 73 111 0.0 0.0 0.00 0.00 0.00 86 1013.9
20260831105111 73 111 0.0 0.0 0.00 0.00 0.00 86 1013.8
20260831104111 73 111 0.0 0.0 0.00 0.00 0.00 86 1013.7
20260831103111 73 111 0.0 0.0 0.00 0.00 0.00 85 1013.6
20260831101111 73 111 0.0 0.0 0.00 0.00 0.00 85 1013.6
20260831094112 73 111 0.0 0.0 0.00 0.00 0.00 84 1013.6
20260831093111 74 111 0.0 0.0 0.00 0.00 0.00 83 1013.5
20260831092111 74 111 0.0 0.0 0.00 0.00 0.00 83 1013.5
20260831091112 74 111 0.0 0.0 0.00 0.00 0.00 83 1013.5
20260831090111 74 111 0.0 1.0 0.00 0.00 0.00 82 1013.4
20260831085111 75 111 0.0 1.0 0.00 0.00 0.00 82 1013.4
20260831084112 75 111 0.0 0.0 0.00 0.00 0.00 82 1013.4
20260831083112 75 111 0.0 0.0 0.00 0.00 0.00 82 1013.4
20260831081112 76 111 0.0 1.0 0.00 0.00 0.00 80 1013.4
20260831080112 76 111 0.0 0.0 0.00 0.00 0.00 79 1013.4
20260831075112 76 111 0.0 1.0 0.00 0.00 0.00 79 1013.4
20260831074112 76 111 0.0 0.0 0.00 0.00 0.00 79 1013.3
20260831073111 77 111 0.0 0.0 0.00 0.00 0.00 78 1013.4
20260831072112 77 111 0.0 1.0 0.00 0.00 0.00 77 1013.4
20260831071112 78 111 0.0 0.0 0.00 0.00 0.00 77 1013.4
20260831070112 78 111 0.0 1.0 0.00 0.00 0.00 75 1013.5
20260831065112 79 111 0.0 1.0 0.00 0.00 0.00 73 1013.5
20260831064111 80 111 0.0 2.0 0.00 0.00 0.00 72 1013.7
20260831062112 81 111 0.0 2.0 0.00 0.00 0.00 70 1013.7
20260831061111 81 111 1.0 2.0 0.00 0.00 0.00 69 1013.6
20260831060112 82 111 1.0 2.0 0.00 0.00 0.00 67 1013.6
20260831055112 82 109 1.0 3.0 0.00 0.00 0.00 66 1013.5
20260831054112 82 17 0.0 3.0 0.00 0.00 0.00 66 1013.5
20260831053112 82 242 1.0 3.0 0.00 0.00 0.00 67 1013.4
20260831052112 81 252 2.0 2.0 0.00 0.00 0.00 66 1013.1
20260831051112 81 317 1.0 3.0 0.00 0.00 0.00 66 1013.1
20260831050112 81 355 2.0 2.0 0.00 0.00 0.00 66 1013.1
20260831045112 81 335 0.0 2.0 0.00 0.00 0.00 65 1013.1
20260831044112 81 335 0.0 3.0 0.00 0.00 0.00 63 1013.1
20260831043112 82 40 2.0 3.0 0.00 0.00 0.00 62 1013.0
20260831042112 81 43 1.0 3.0 0.00 0.00 0.00 62 1013.0
20260831041112 81 44 2.0 3.0 0.00 0.00 0.00 63 1012.9
20260831040112 80 56 2.0 4.0 0.00 0.00 0.00 64 1012.8
20260831035112 78 82 1.0 2.0 0.00 0.00 0.00 68 1012.6
20260831034112 78 70 0.0 2.0 0.00 0.00 0.00 67 1012.5
20260831033112 79 70 1.0 1.0 0.00 0.00 0.00 67 1012.4
20260831032112 79 70 0.0 1.0 0.00 0.00 0.00 66 1012.3
20260831031112 79 70 0.0 1.0 0.00 0.00 0.00 66 1012.2
20260831030112 79 70 0.0 1.0 0.00 0.00 0.00 65 1012.2
20260831025112 80 70 0.0 1.0 0.00 0.00 0.00 65 1012.1
20260831024113 80 70 0.0 2.0 0.00 0.00 0.00 64 1012.0
20260831023112 81 70 0.0 0.0 0.00 0.00 0.00 63 1011.9
20260831022112 81 70 0.0 1.0 0.00 0.00 0.00 61 1011.9
20260831020112 83 70 0.0 0.0 0.00 0.00 0.00 60 1011.6
20260831015112 84 70 0.0 1.0 0.00 0.00 0.00 58 1011.4
20260831011112 89 70 0.0 1.0 0.00 0.00 0.00 48 1011.1
20260831010112 91 70 1.0 1.0 0.00 0.00 0.00 47 1011.1
20260831005112 92 70 0.0 2.0 0.00 0.00 0.00 42 1011.0
20260831004112 94 70 0.0 4.0 0.00 0.00 0.00 40 1011.1